VOZ712 YPAD-YPPH

Flight info

Callsign VOZ712
Flight time N/A
Altitude 26000
Route GILES5/05 GILES Q33 ESP Q158 PH
Aircraft A320/M-SDE3FGHIRWY/LB1

Departure

Time 2025-09-05 05:47
Airport Adelaide International Airport (YPAD)

Arrival

Time N/A
Airport Perth International Airport (YPPH)
Time Latitude Longitude Altitude Speed Heading
2025-09-05 05:01 -34.93903 138.53884 27 ft 0 kts 320°
2025-09-05 05:34 -34.93904 138.53889 27 ft 3 kts 285°
2025-09-05 05:35 -34.93919 138.53935 27 ft 3 kts 300°
2025-09-05 05:35 -34.93939 138.53977 28 ft 3 kts 286°
2025-09-05 05:36 -34.93940 138.53996 31 ft 0 kts 230°
2025-09-05 05:39 -34.93952 138.53979 27 ft 8 kts 230°
2025-09-05 05:39 -34.94029 138.53885 26 ft 12 kts 179°
2025-09-05 05:40 -34.94341 138.53581 24 ft 25 kts 230°
2025-09-05 05:41 -34.94518 138.53309 22 ft 16 kts 249°
2025-09-05 05:41 -34.94442 138.53058 23 ft 17 kts 277°
2025-09-05 05:41 -34.94510 138.52944 26 ft 18 kts 217°
2025-09-05 05:42 -34.94727 138.52732 22 ft 22 kts 218°
2025-09-05 05:43 -34.95118 138.52366 20 ft 26 kts 214°
2025-09-05 05:43 -34.95265 138.52233 20 ft 27 kts 218°
2025-09-05 05:43 -34.95511 138.51871 21 ft 29 kts 231°
2025-09-05 05:44 -34.95810 138.51695 19 ft 17 kts 138°
2025-09-05 05:45 -34.95563 138.52151 22 ft 86 kts 50°
2025-09-05 05:45 -34.95055 138.52884 22 ft 138 kts 50°
2025-09-05 05:45 -34.93554 138.55039 786 ft 175 kts 51°
2025-09-05 05:46 -34.91991 138.57304 2294 ft 172 kts 48°
2025-09-05 05:47 -34.89764 138.60503 4011 ft 162 kts 45°
2025-09-05 05:47 -34.89040 138.61543 4508 ft 160 kts 44°
2025-09-05 05:47 -34.87467 138.63786 4974 ft 195 kts 46°
2025-09-05 05:48 -34.86529 138.65120 5131 ft 220 kts 46°
2025-09-05 05:48 -34.82132 138.67910 5835 ft 282 kts 350°
2025-09-05 05:49 -34.80295 138.66954 6125 ft 303 kts 324°
2025-09-05 05:49 -34.77527 138.62954 7280 ft 324 kts 288°
2025-09-05 05:50 -34.79380 138.54974 9448 ft 340 kts 245°
2025-09-05 05:50 -34.80512 138.52454 10209 ft 340 kts 243°
2025-09-05 05:51 -34.82424 138.48257 11280 ft 342 kts 245°
2025-09-05 05:51 -34.84121 138.44443 12155 ft 346 kts 245°
2025-09-05 05:52 -34.85250 138.41845 12785 ft 347 kts 245°
2025-09-05 05:53 -34.89418 138.32121 14858 ft 357 kts 245°
2025-09-05 05:53 -34.91731 138.26715 15898 ft 361 kts 245°
2025-09-05 05:54 -34.94044 138.21297 16992 ft 364 kts 245°
2025-09-05 05:54 -34.96384 138.15801 18115 ft 367 kts 245°
2025-09-05 05:55 -34.98080 138.09966 19169 ft 366 kts 261°
2025-09-05 05:55 -34.98626 138.03760 20147 ft 370 kts 265°
2025-09-05 05:55 -34.98875 138.00622 20624 ft 373 kts 265°
2025-09-05 05:56 -34.99620 137.91152 21973 ft 378 kts 265°
2025-09-05 05:57 -35.00113 137.84766 23035 ft 377 kts 264°
2025-09-05 05:57 -35.00597 137.78429 24093 ft 373 kts 264°
2025-09-05 05:58 -35.01751 137.63127 26843 ft 354 kts 263°
2025-09-05 06:01 -35.03643 137.37674 31356 ft 321 kts 263°
2025-09-05 06:02 -35.04999 137.18971 33641 ft 313 kts 263°
2025-09-05 06:05 -35.06696 136.94930 35121 ft 321 kts 263°
2025-09-05 06:06 -35.08008 136.75756 36003 ft 328 kts 263°
2025-09-05 06:09 -35.09686 136.50707 37231 ft 331 kts 264°
2025-09-05 06:10 -35.10966 136.31000 36123 ft 328 kts 264°
2025-09-05 06:13 -35.12525 136.06317 36115 ft 324 kts 264°
2025-09-05 06:14 -35.13757 135.86186 36110 ft 356 kts 264°
2025-09-05 06:16 -35.15199 135.61953 36092 ft 357 kts 264°
2025-09-05 06:18 -35.16587 135.37738 36075 ft 357 kts 265°
2025-09-05 06:21 -35.18096 135.10526 36080 ft 356 kts 265°
2025-09-05 06:23 -35.18331 134.86418 36063 ft 355 kts 269°
2025-09-05 06:25 -35.17713 134.62310 36054 ft 355 kts 270°
2025-09-05 06:27 -35.17042 134.38202 36033 ft 356 kts 270°
2025-09-05 06:29 -35.16328 134.14106 36032 ft 355 kts 270°
2025-09-05 06:31 -35.15567 133.90068 36017 ft 352 kts 270°
2025-09-05 06:33 -35.14753 133.66211 35971 ft 352 kts 270°
2025-09-05 06:34 -35.14019 133.45385 35989 ft 349 kts 271°
2025-09-05 06:36 -35.13135 133.21755 35980 ft 347 kts 271°
2025-09-05 06:38 -35.12215 132.98229 35967 ft 346 kts 271°
2025-09-05 06:41 -35.11118 132.71867 35944 ft 344 kts 271°
2025-09-05 06:42 -35.10234 132.51480 35933 ft 343 kts 271°
2025-09-05 06:45 -35.09107 132.26332 35921 ft 342 kts 272°
2025-09-05 06:47 -35.08007 132.03165 35900 ft 341 kts 272°
2025-09-05 06:49 -35.06874 131.80078 35899 ft 341 kts 272°
2025-09-05 06:50 -35.05842 131.59881 35879 ft 340 kts 272°
2025-09-05 06:53 -35.03731 131.34101 35887 ft 339 kts 276°
2025-09-05 06:54 -35.01673 131.14153 35852 ft 337 kts 275°
2025-09-05 06:57 -34.99011 130.88602 35847 ft 338 kts 276°
2025-09-05 06:59 -34.96579 130.65844 35843 ft 338 kts 276°
2025-09-05 07:01 -34.94110 130.43144 35828 ft 337 kts 276°
2025-09-05 07:02 -34.91935 130.23356 35845 ft 336 kts 277°
2025-09-05 07:05 -34.89096 129.97993 35825 ft 335 kts 277°
2025-09-05 07:06 -34.86841 129.78309 35817 ft 336 kts 277°
2025-09-05 07:09 -34.83917 129.53082 35805 ft 334 kts 277°
2025-09-05 07:10 -34.81615 129.33576 35786 ft 332 kts 278°
2025-09-05 07:13 -34.78630 129.08605 35805 ft 331 kts 278°